Back to catalog

WISDOM B

AliveScienceSSO
NORAD 66765·PAYLOAD·🇯🇵 Japan
This satellite name has not been confirmed by official sources yet.

Launched Nov 28, 2025 from Vandenberg Space Force Base

Loading…

Next Passes (next 24 hours)

TLE

FreshSource: Space-Track

Epoch: Sep 14, 2026, 10:42 UTC

1 66765U 25276DD  26257.44647706  .00008314  00000-0  32963-3 0  9994
2 66765  97.4144 330.9576 0001040  75.4622 284.6732 15.25640419 44079

Track WISDOM B in real time with AllMySat

Download on the App Store